N8WJW Weather Reports


time (UTC)temp
F
wind
direction
speed
knots
gust
knots
rain 1hr
in
rain 24hr
in
rain mn
in
humidity
%
barometer
mb
20260506051412 46 204 0.9 1.7 0.00 0.00 0.00 99 1009.7
20260506050909 46 70 0.9 2.6 0.00 0.00 0.00 99 1009.6
20260506050406 46 243 0.9 2.6 0.00 0.00 0.00 99 1009.6
20260506044857 46 129 0.0 2.6 0.00 0.00 0.00 99 1009.7
20260506044355 46 36 0.9 2.6 0.00 0.00 0.00 99 1009.7
20260506043851 46 55 0.9 2.6 0.00 0.00 0.00 99 1009.8
20260506043349 47 106 0.0 1.7 0.00 0.00 0.00 99 1009.8
20260506042847 47 77 0.0 1.7 0.00 0.00 0.00 99 1009.7
20260506042346 47 35 0.0 1.7 0.00 0.00 0.00 99 1010.0
20260506041844 47 349 0.0 1.7 0.00 0.00 0.00 99 1009.9
20260506041341 47 69 0.9 1.7 0.00 0.00 0.00 99 1010.0
20260506040837 47 212 0.0 1.7 0.00 0.00 0.00 99 1010.0
20260506040335 47 57 0.9 1.7 0.00 0.00 0.00 99 1010.1
20260506035831 47 39 0.0 1.7 0.00 0.02 0.02 99 1010.2
20260506035329 47 271 0.9 1.7 0.00 0.02 0.02 99 1010.2
20260506034826 47 67 0.9 2.6 0.00 0.02 0.02 99 1010.3
20260506034323 47 160 0.0 3.5 0.00 0.02 0.02 99 1010.4
20260506033820 47 15 0.0 1.7 0.00 0.02 0.02 99 1010.4
20260506033317 47 145 0.0 2.6 0.00 0.02 0.02 99 1010.4
20260506032814 48 235 0.9 3.5 0.00 0.02 0.02 99 1010.4
20260506032311 48 237 1.7 2.6 0.00 0.02 0.02 99 1010.5
20260506031807 48 208 0.0 2.6 0.00 0.02 0.02 99 1010.2
20260506031305 48 156 0.9 1.7 0.00 0.02 0.02 99 1010.2
20260506030802 48 219 1.7 1.7 0.00 0.02 0.02 99 1010.4
20260506030300 48 44 0.0 0.9 0.00 0.02 0.02 99 1010.0
20260506025757 48 195 0.9 1.7 0.02 0.02 0.02 99 1010.1
20260506025253 48 211 1.7 1.7 0.02 0.02 0.02 99 1009.8
20260506024750 48 146 0.0 1.7 0.00 0.01 0.01 99 1009.9
20260506024247 48 207 0.9 1.7 0.00 0.01 0.01 99 1009.9
20260506023743 48 165 0.9 1.7 0.00 0.01 0.01 99 1009.7
20260506023240 48 117 0.0 2.6 0.00 0.01 0.01 99 1009.9
20260506022737 48 180 0.0 3.5 0.00 0.01 0.01 99 1009.8
20260506022235 48 9 0.0 1.7 0.00 0.01 0.01 99 1010.0
20260506021733 48 158 0.0 1.7 0.00 0.01 0.01 99 1009.9
20260506021229 48 66 0.0 1.7 0.00 0.01 0.01 99 1010.0
20260506020726 48 50 0.0 1.7 0.00 0.01 0.01 99 1010.0
20260506020224 48 207 0.0 0.9 0.00 0.01 0.01 99 1010.0
20260506015721 48 37 0.0 1.7 0.00 0.01 0.01 99 1009.9
20260506015219 48 156 0.0 0.9 0.00 0.01 0.01 99 1009.8
20260506014716 48 49 0.0 0.9 0.00 0.01 0.01 99 1010.1
20260506014212 48 145 0.0 0.9 0.00 0.01 0.01 99 1009.8
20260506013709 48 200 0.0 1.7 0.00 0.01 0.01 99 1009.7
20260506013206 48 146 0.0 2.6 0.00 0.01 0.01 99 1009.8
20260506012702 48 180 0.0 1.7 0.00 0.01 0.01 99 1009.8
20260506012159 48 199 0.0 1.7 0.00 0.01 0.01 99 1009.6
20260506011657 48 221 1.7 3.5 0.00 0.01 0.01 99 1009.7
20260506011153 48 168 0.0 2.6 0.00 0.01 0.01 99 1009.5
20260506010652 48 222 1.7 2.6 0.00 0.01 0.01 99 1009.8
20260506010148 48 187 1.7 2.6 0.00 0.01 0.01 99 1009.7
20260506005645 48 140 0.9 1.7 0.00 0.01 0.01 99 1009.6
20260506005142 48 132 0.9 1.7 0.00 0.01 0.01 99 1009.4
20260506004638 48 143 0.9 2.6 0.00 0.01 0.01 99 1009.3
20260506004136 48 180 0.0 1.7 0.00 0.01 0.01 99 1009.4
20260506003632 48 193 0.0 1.7 0.00 0.01 0.01 99 1009.4
20260506003128 48 320 0.0 1.7 0.00 0.01 0.01 99 1009.2
20260506002619 48 26 1.7 1.7 0.00 0.01 0.01 99 1009.3
20260506002115 48 130 0.0 1.7 0.02 0.01 0.01 99 1009.4
20260506001611 48 116 1.7 2.6 0.02 0.01 0.01 99 1008.3
20260506001108 48 146 0.9 1.7 0.00 0.01 0.01 99 1009.1
20260506000606 48 175 0.9 2.6 0.00 0.01 0.01 99 1009.2
20260505235601 48 143 0.9 2.6 0.00 0.01 0.01 99 1009.4
20260505235058 48 163 0.0 1.7 0.00 0.01 0.01 99 1009.8
20260505234555 48 89 0.0 1.7 0.00 0.01 0.01 99 1009.8
20260505234051 48 86 0.0 2.6 0.00 0.01 0.01 99 1009.4
20260505233549 48 112 0.9 2.6 0.00 0.01 0.01 99 1009.5
20260505233046 48 96 0.9 1.7 0.02 0.01 0.01 99 1009.4
20260505232544 48 348 1.7 2.6 0.02 0.01 0.01 99 1009.7
20260505232041 48 235 1.7 4.3 0.00 0.00 0.00 99 1010.4
20260505231538 48 112 0.9 1.7 0.00 0.00 0.00 99 1009.6
20260505231037 48 72 0.9 2.6 0.00 0.00 0.00 99 1009.6
20260505230534 48 135 1.7 2.6 0.00 0.00 0.00 99 1009.6
20260505230030 48 89 0.0 2.6 0.00 0.00 0.00 99 1009.4
20260505225527 49 1 0.0 0.9 0.00 0.00 0.00 99 1009.6
20260505225023 49 8 0.0 1.7 0.00 0.00 0.00 99 1009.5
20260505224520 49 121 2.6 3.5 0.00 0.00 0.00 99 1009.4
20260505224017 49 195 0.0 2.6 0.00 0.00 0.00 99 1009.8
20260505223514 49 124 0.0 1.7 0.00 0.00 0.00 99 1009.4
20260505223010 49 116 0.0 1.7 0.00 0.00 0.00 99 1009.5
20260505222507 49 340 0.0 1.7 0.00 0.00 0.00 99 1009.6
20260505222003 49 194 0.0 1.7 0.00 0.00 0.00 99 1009.7
20260505221500 50 147 1.7 2.6 0.00 0.00 0.00 99 1009.5
20260505220957 50 150 0.0 1.7 0.00 0.00 0.00 99 1009.6
20260505220454 50 248 2.6 4.3 0.00 0.00 0.00 99 1009.8
20260505215951 50 91 1.7 2.6 0.00 0.00 0.00 99 1009.4
20260505215450 50 139 1.7 2.6 0.00 0.00 0.00 99 1009.4
20260505214947 50 38 0.0 0.9 0.00 0.00 0.00 99 1009.4
20260505214445 50 48 1.7 2.6 0.00 0.00 0.00 99 1009.3
20260505213942 51 217 0.0 5.2 0.02 0.00 0.00 99 1009.5
20260505213439 51 261 1.7 2.6 0.00 0.00 0.00 99 1009.3
20260505212936 52 250 1.7 4.3 0.00 0.00 0.00 99 1009.8
20260505212432 53 216 0.9 3.5 0.00 0.00 0.00 99 1009.4
20260505211928 54 223 2.6 4.3 0.00 0.00 0.00 99 1008.9
20260505211426 54 235 0.0 4.3 0.00 0.00 0.00 99 1009.0
20260505210922 55 313 1.7 2.6 0.00 0.00 0.00 99 1008.6
20260505210423 55 180 0.0 1.7 0.00 0.00 0.00 99 1008.9
20260505205916 55 353 1.7 2.6 0.00 0.00 0.00 99 1008.8
20260505205415 55 229 0.0 1.7 0.00 0.00 0.00 99 1009.1
20260505204912 55 147 0.0 2.6 0.00 0.00 0.00 99 1009.2
20260505204409 55 178 0.0 1.7 0.00 0.00 0.00 98 1009.2
20260505203906 55 223 1.7 2.6 0.00 0.00 0.00 98 1009.2
20260505203403 55 196 1.7 2.6 0.00 0.00 0.00 98 1008.9
20260505202859 55 279 0.0 1.7 0.00 0.00 0.00 98 1008.9
20260505202355 55 113 0.0 1.7 0.00 0.00 0.00 97 1009.0
20260505201852 55 309 0.0 1.7 0.00 0.00 0.00 97 1009.0
20260505201349 55 290 0.0 3.5 0.00 0.00 0.00 97 1008.9
20260505200848 55 219 0.0 1.7 0.00 0.00 0.00 97 1008.9
20260505200344 56 236 2.6 3.5 0.00 0.00 0.00 96 1009.3
20260505195840 56 173 0.0 2.6 0.00 0.00 0.00 96 1009.2
20260505195337 56 19 0.0 2.6 0.00 0.00 0.00 96 1009.3
20260505194834 57 105 0.0 1.7 0.00 0.00 0.00 96 1009.3
20260505194331 57 236 0.0 2.6 0.00 0.00 0.00 95 1009.0
20260505193826 57 283 0.9 1.7 0.00 0.00 0.00 94 1009.1
20260505193325 57 240 0.0 0.9 0.00 0.00 0.00 94 1009.2
20260505192822 57 240 0.0 2.6 0.00 0.00 0.00 93 1009.1
20260505192320 58 121 1.7 2.6 0.00 0.00 0.00 93 1009.1
20260505191817 58 169 1.7 2.6 0.00 0.00 0.00 92 1009.2
20260505191316 58 283 0.0 1.7 0.00 0.00 0.00 91 1009.2
20260505190812 59 241 0.9 3.5 0.00 0.00 0.00 89 1009.2
20260505190308 59 139 0.0 3.5 0.00 0.00 0.00 88 1009.3
20260505185804 60 322 0.0 3.5 0.00 0.00 0.00 85 1009.2
20260505185300 61 19 0.0 1.7 0.00 0.00 0.00 82 1009.2
20260505184756 61 114 0.0 1.7 0.00 0.00 0.00 80 1009.3
20260505184254 61 19 0.0 3.5 0.00 0.00 0.00 80 1009.4
20260505183751 61 291 0.9 3.5 0.00 0.00 0.00 80 1009.2
20260505183248 61 138 1.7 2.6 0.00 0.00 0.00 80 1009.2
20260505182744 61 243 0.0 1.7 0.00 0.00 0.00 80 1009.1
20260505182241 61 222 1.7 2.6 0.00 0.00 0.00 80 1009.3
20260505181737 61 152 0.9 4.3 0.00 0.00 0.00 79 1009.3
20260505181235 61 231 0.0 1.7 0.00 0.00 0.00 79 1009.3
20260505180731 62 47 1.7 4.3 0.00 0.00 0.00 79 1009.2
20260505180228 62 257 0.0 4.3 0.00 0.00 0.00 78 1009.3
20260505175724 62 235 1.7 2.6 0.00 0.00 0.00 77 1009.2
20260505175221 62 269 0.0 5.2 0.00 0.00 0.00 77 1008.9
20260505174718 62 238 3.5 4.3 0.00 0.00 0.00 78 1009.0
20260505174215 61 114 0.9 2.6 0.00 0.00 0.00 79 1009.1
20260505173711 61 192 0.9 4.3 0.00 0.00 0.00 78 1009.2
20260505173208 62 221 1.7 4.3 0.00 0.00 0.00 78 1008.9
20260505172705 62 220 2.6 4.3 0.00 0.00 0.00 77 1008.8
20260505172201 62 285 0.9 4.3 0.00 0.00 0.00 77 1008.9
20260505171701 62 186 0.9 3.5 0.00 0.00 0.00 77 1008.8
20260505171159 61 227 0.9 5.2 0.00 0.00 0.00 77 1008.8
20260505170655 61 218 2.6 7.0 0.00 0.00 0.00 77 1008.8
20260505170152 61 262 3.5 5.2 0.00 0.00 0.00 76 1008.9
20260505165652 61 206 0.9 6.1 0.00 0.00 0.00 76 1008.9
20260505165148 62 264 1.7 7.0 0.00 0.00 0.00 75 1008.7
20260505164644 63 278 2.6 4.3 0.00 0.00 0.00 72 1008.7
20260505164142 64 268 0.0 3.5 0.00 0.00 0.00 69 1008.5
20260505163640 66 196 1.7 5.2 0.00 0.00 0.00 68 1008.6
20260505163138 66 241 3.5 7.8 0.00 0.00 0.00 64 1008.2
20260505162635 68 256 2.6 6.1 0.00 0.00 0.00 63 1008.2
20260505162132 68 209 2.6 4.3 0.00 0.00 0.00 65 1008.0
20260505161629 68 215 5.2 8.7 0.00 0.00 0.00 62 1008.2
20260505161126 69 137 3.5 5.2 0.00 0.00 0.00 62 1008.0
20260505160624 68 313 1.7 7.8 0.00 0.00 0.00 63 1008.2
20260505160121 68 117 0.0 7.0 0.00 0.00 0.00 61 1008.2
20260505153101 66 235 4.3 9.6 0.00 0.00 0.00 66 1007.7
20260505152557 66 199 4.3 7.8 0.00 0.00 0.00 66 1007.4
20260505152053 66 230 6.1 7.8 0.00 0.00 0.00 67 1007.7
20260505151548 66 200 2.6 5.2 0.00 0.00 0.00 68 1007.5
20260505151046 65 178 2.6 7.0 0.00 0.00 0.00 69 1007.9
20260505150542 64 188 5.2 12.2 0.00 0.00 0.00 71 1008.1
20260505140508 65 215 13.9 13.9 0.00 0.00 0.00 72 1007.4
20260505124921 61 192 4.3 10.4 0.00 0.00 0.00 75 1007.4
20260505124418 61 184 6.1 7.8 0.00 0.00 0.00 75 1007.0
20260505123914 61 175 5.2 13.9 0.00 0.00 0.00 75 1006.9
20260505123411 61 194 4.3 7.8 0.00 0.00 0.00 74 1007.0
20260505122906 61 196 7.8 7.8 0.00 0.00 0.00 75 1006.9
20260505122404 61 188 3.5 6.1 0.00 0.00 0.00 75 1006.6
20260505121901 61 202 4.3 7.0 0.00 0.00 0.00 74 1006.7
20260505121358 61 226 2.6 7.0 0.00 0.00 0.00 74 1006.6
20260505120853 61 195 3.5 8.7 0.00 0.00 0.00 74 1006.5
20260505120350 61 210 4.3 6.1 0.00 0.00 0.00 74 1006.6
20260505115849 62 150 3.5 8.7 0.00 0.00 0.00 73 1006.7
20260505115346 62 152 0.9 7.0 0.00 0.00 0.00 73 1006.8
20260505114844 62 214 2.6 7.0 0.00 0.00 0.00 72 1006.6
20260505114340 62 203 2.6 13.0 0.00 0.00 0.00 70 1006.7
20260505113836 63 209 3.5 10.4 0.00 0.00 0.00 68 1006.5
20260505113333 63 189 4.3 7.0 0.00 0.00 0.00 69 1006.5
20260505112829 63 194 4.3 13.0 0.00 0.00 0.00 67 1006.5
20260505112326 63 165 4.3 6.1 0.00 0.00 0.00 69 1006.4
20260505111822 63 241 2.6 4.3 0.00 0.00 0.00 70 1006.4
20260505111318 63 201 5.2 7.0 0.00 0.00 0.00 69 1006.3
20260505110814 64 205 6.1 9.6 0.00 0.00 0.00 68 1006.2
20260505110311 64 191 5.2 9.6 0.00 0.00 0.00 68 1006.1
20260505101746 64 201 6.1 11.3 0.00 0.00 0.00 66 1005.5
20260505101241 64 190 4.3 7.0 0.00 0.00 0.00 67 1005.3
20260505100738 64 210 3.5 9.6 0.00 0.00 0.00 67 1005.4
20260505100235 64 204 3.5 4.3 0.00 0.00 0.00 68 1005.2
20260505095730 64 196 2.6 4.3 0.00 0.00 0.00 69 1005.2
20260505095228 64 242 7.0 7.8 0.00 0.00 0.00 67 1005.2
20260505094723 64 201 4.3 6.1 0.00 0.00 0.00 68 1005.2
20260505094220 64 188 4.3 5.2 0.00 0.00 0.00 69 1005.2
20260505093716 63 190 2.6 5.2 0.00 0.00 0.00 69 1004.8
20260505093214 64 204 2.6 5.2 0.00 0.00 0.00 69 1004.8
20260505092710 64 234 0.0 7.8 0.00 0.00 0.00 68 1004.7
20260505092210 64 224 2.6 5.2 0.00 0.00 0.00 68 1005.0
20260505091706 64 199 2.6 6.1 0.00 0.00 0.00 67 1004.6
20260505091204 64 213 4.3 7.8 0.00 0.00 0.00 67 1004.9
20260505090701 64 185 4.3 5.2 0.00 0.00 0.00 68 1004.8
20260505090200 64 179 4.3 8.7 0.00 0.00 0.00 68 1004.7
20260505085657 64 184 4.3 7.0 0.00 0.00 0.00 67 1004.8
20260505085155 64 243 8.7 8.7 0.00 0.00 0.00 68 1004.8
20260505084652 64 199 7.8 7.8 0.00 0.00 0.00 67 1004.8
20260505084151 64 182 2.6 12.2 0.00 0.00 0.00 67 1004.8
20260505083648 65 240 4.3 8.7 0.00 0.00 0.00 67 1004.9
20260505083144 65 211 4.3 7.8 0.00 0.00 0.00 67 1005.0
20260505082640 65 203 4.3 5.2 0.00 0.00 0.00 68 1004.7
20260505082137 65 205 1.7 7.8 0.00 0.00 0.00 67 1004.8
20260505081633 65 218 4.3 9.6 0.00 0.00 0.00 67 1004.4
20260505081131 65 257 7.0 9.6 0.00 0.00 0.00 67 1004.6
20260505080627 65 237 5.2 11.3 0.00 0.00 0.00 67 1004.4
20260505080123 64 211 4.3 9.6 0.00 0.00 0.00 68 1004.4
20260505075620 64 175 4.3 11.3 0.00 0.00 0.00 69 1004.3
20260505075116 64 188 7.0 9.6 0.00 0.00 0.00 68 1004.2
20260505074613 64 194 3.5 6.1 0.00 0.00 0.00 69 1004.6
20260505074110 64 184 6.1 7.0 0.00 0.00 0.00 69 1004.2
20260505073608 64 203 1.7 7.0 0.00 0.00 0.00 69 1004.6
20260505073106 64 169 4.3 7.0 0.00 0.00 0.00 70 1004.2
20260505072601 65 216 4.3 11.3 0.00 0.00 0.00 69 1004.3
20260505072058 65 199 4.3 12.2 0.00 0.00 0.00 67 1004.4
20260505071554 65 235 3.5 10.4 0.00 0.00 0.00 67 1004.4
20260505071052 65 182 2.6 8.7 0.00 0.00 0.00 67 1004.1
20260505070549 65 192 6.1 7.8 0.00 0.00 0.00 67 1004.2
20260505070044 66 200 2.6 6.1 0.00 0.00 0.00 67 1004.3
20260505065541 66 178 3.5 9.6 0.00 0.00 0.00 66 1004.2
20260505065038 66 183 6.1 11.3 0.00 0.00 0.00 64 1004.3
20260505064534 66 242 7.0 13.0 0.00 0.00 0.00 65 1004.6
20260505064033 66 216 6.1 9.6 0.00 0.00 0.00 65 1004.4
20260505063530 66 283 3.5 10.4 0.00 0.00 0.00 65 1004.6
20260505063025 66 186 5.2 13.9 0.00 0.00 0.00 65 1004.7
20260505062523 66 189 5.2 7.8 0.00 0.00 0.00 65 1004.9
20260505062020 66 200 4.3 12.2 0.00 0.00 0.00 65 1004.7
20260505061517 66 176 3.5 12.2 0.00 0.00 0.00 65 1004.9
20260505061015 66 202 7.0 13.0 0.00 0.00 0.00 65 1004.8
20260505060513 66 188 3.5 10.4 0.00 0.00 0.00 66 1005.1
20260505060009 65 211 5.2 10.4 0.00 0.00 0.00 67 1004.8
20260505055504 65 198 3.5 4.3 0.00 0.00 0.00 68 1004.8
20260505055001 66 198 7.0 8.7 0.00 0.00 0.00 67 1005.2